SCP
0 0 0 0 0 0 0 0 0 0 0 0 0 0 1 1 1 1 1 1 2 2 2 2 2 2 2 2 2 2 1 1 1 1 1 1 1 1 1 1 1 1 1 1
0 0 0 0 0 0 0 0 0 0 0 0 0 1 1 1 1 1 1 1 2 2 2 2 2 2 2 2 2 2 1 1 1 1 1 1 1 1 1 1 1 1 1 1
0 0 0 0 0 0 0 0 0 0 0 0 1 1 1 1 1 1 1 1 2 2 2 2 2 2 2 2 2 2 2 1 1 1 1 1 1 1 1 1 1 1 1 1
0 0 0 0 0 0 0 0 0 0 0 1 1 1 1 1 2 1 1 2 2 2 2 2 2 3 3 2 2 2 2 2 1 1 1 1 1 1 1 1 1 1 1 1
0 0 0 0 0 0 0 0 0 1 1 1 1 1 1 1 1 2 2 2 2 2 2 2 3 3 3 3 2 2 2 2 2 1 1 1 1 1 1 1 1 1 1 1
0 0 0 0 0 0 0 0 1 1 1 1 1 1 1 1 2 2 2 2 2 2 2 2 3 3 3 3 2 2 2 2 1 1 1 1 1 1 1 1 1 1 1 1
0 0 0 0 0 0 1 1 1 1 1 1 1 1 1 2 2 2 2 2 2 2 2 2 3 3 3 3 2 2 2 2 2 1 1 1 1 1 1 1 1 1 1 1
0 0 0 0 1 1 1 1 1 1 1 1 2 2 2 2 2 2 2 2 2 2 2 2 3 3 3 2 2 2 2 2 2 1 1 1 1 1 1 1 1 1 1 1
0 0 1 1 1 1 1 1 1 1 1 1 1 1 2 2 2 2 2 2 2 2 2 3 3 3 3 2 2 2 2 2 2 2 1 1 1 1 1 1 1 1 1 1
1 1 1 1 1 1 1 1 1 1 1 1 1 1 1 1 1 1 1 2 2 2 2 2 2 2 2 2 2 2 2 2 2 2 1 1 1 1 1 1 1 1 1 1
1 1 0 0 1 1 1 1 1 1 1 1 1 1 1 1 1 1 1 1 2 2 2 2 2 2 2 2 2 2 2 2 1 1 1 1 1 1 1 1 1 1 1 1
1 1 0 0 0 1 1 1 1 1 1 1 1 1 1 1 1 1 1 1 2 2 2 2 2 2 2 2 3 2 2 2 1 1 1 1 1 1 1 0 0 0 0 0
0 1 1 1 1 1 1 1 1 1 1 1 1 1 1 1 1 1 1 1 2 2 2 2 2 2 2 3 3 3 2 2 2 1 1 1 1 1 1 0 0 0 0 0
0 1 1 1 1 1 1 1 1 1 1 1 1 1 1 1 1 1 1 1 1 2 2 2 2 2 2 3 3 3 2 2 2 1 1 1 1 1 1 1 0 0 0 0
0 0 1 1 1 1 1 1 1 1 1 1 1 1 1 1 1 1 1 1 1 1 2 2 2 2 2 2 3 3 2 2 2 1 1 1 1 1 1 1 1 1 0 0
0 0 1 1 1 1 1 1 1 1 1 1 0 0 1 1 1 1 1 1 1 1 2 2 2 2 2 2 2 2 2 2 1 1 1 1 1 1 1 1 1 1 0 0
0 0 0 0 0 0 0 0 0 1 1 1 0 0 1 1 1 1 1 1 1 1 2 2 2 2 2 2 2 2 1 1 1 1 1 1 1 1 1 1 0 0 0 0
0 0 0 0 0 0 0 0 0 0 1 1 1 0 1 1 1 1 1 1 1 1 1 2 2 2 1 1 1 1 1 1 1 1 1 0 0 0 0 0 0 0 0 0
0 0 0 0 0 0 0 0 0 0 1 1 1 1 1 1 1 1 1 1 1 1 1 1 1 1 1 1 1 1 0 0 0 0 0 0 0 0 0 0 0 0 0 0
0 0 0 0 0 0 0 0 1 0 1 1 1 1 1 1 1 1 1 1 1 1 1 1 1 1 1 1 1 0 0 0 0 0 0 0 0 0 0 0 0 0 0 0
0 0 0 0 0 0 0 0 0 0 0 0 0 0 0 1 1 1 1 1 1 1 1 1 1 1 1 0 0 0 0 0 0 0 0 0 0 0 0 0 0 0 0 0
0 0 0 0 0 0 0 0 0 0 0 0 0 0 0 0 0 1 1 1 1 0 0 0 0 0 0 0 0 0 0 0 0 0 0 0 0 0 0 0 0 0 0 0
0 0 0 0 0 0 0 0 0 0 0 0 0 0 0 0 0 0 0 0 0 0 0 0 0 0 0 0 0 0 0 0 0 0 0 0 0 0 0 0 0 0 0 0
0 0 0 0 0 0 0 0 0 0 0 0 0 0 0 0 0 0 0 0 0 0 0 0 0 0 0 0 0 0 0 0 0 0 0 0 0 0 0 0 0 0 0 0
0 0 0 0 0 0 0 0 0 0 0 0 0 0 0 0 0 0 0 0 0 0 0 0 0 0 0 0 0 0 0 0 0 0 0 0 0 0 0 0 0 0 0 0
0 0 0 0 0 0 0 0 0 0 0 0 0 0 0 0 0 0 0 0 0 0 0 0 0 0 0 0 0 0 0 0 0 0 0 0 0 0 0 0 0 0 0 0
0 0 0 0 0 0 0 0 0 0 0 0 0 0 0 0 0 0 0 0 0 0 0 0 0 0 0 0 0 0 0 0 0 0 0 0 0 0 0 0 0 0 0 0
Wind_Speed
14 14 12 13 13 13 12 12 10 7 7 6 4 4 4 7 7 8 8 7 8 7 6 6 7 7 7 7 7 8 7 6 6 6 5 4 4 4 4 3 3 2 2 2
14 14 13 13 13 13 13 12 9 7 4 2 2 4 3 4 6 6 7 7 7 7 6 6 7 7 7 7 7 7 7 7 6 6 6 5 4 4 4 3 3 2 2 2
12 13 12 13 12 13 12 11 9 7 4 3 1 2 4 3 5 5 6 7 6 6 6 5 6 7 7 7 7 7 7 7 6 6 6 5 5 5 4 3 3 2 2 3
10 11 13 9 8 9 9 8 7 5 4 3 3 1 3 5 4 4 5 6 5 5 5 6 6 7 7 8 7 7 7 7 7 6 5 5 5 4 4 3 3 2 2 3
9 11 11 9 6 6 6 6 4 2 3 3 3 2 4 5 5 4 4 4 4 4 4 4 5 7 8 8 7 7 7 7 7 6 6 5 5 4 4 3 3 3 3 3
9 9 10 5 5 6 6 5 1 2 2 3 3 3 2 4 4 5 4 4 3 4 4 4 4 6 7 7 7 7 6 6 6 6 6 5 5 4 4 3 3 3 3 3
12 10 6 4 6 6 6 2 1 2 2 1 1 3 4 5 5 4 5 5 4 4 3 4 5 5 6 6 6 5 5 5 5 5 5 5 4 4 3 3 3 3 3 3
10 10 5 3 2 1 1 2 2 2 4 5 5 5 5 5 5 5 4 4 4 3 3 3 5 5 5 5 5 5 5 5 5 5 5 5 5 4 4 4 4 3 3 3
3 1 3 5 5 4 2 2 3 3 5 5 5 4 5 5 5 5 4 3 3 3 3 3 4 4 4 4 4 5 5 5 5 5 4 4 6 5 5 4 4 4 4 4
2 2 3 4 4 4 3 1 1 3 4 5 5 5 5 5 5 4 4 3 2 3 3 3 3 3 3 3 4 5 5 5 5 5 5 4 3 4 4 4 4 4 3 3
2 1 2 2 3 3 3 4 5 5 6 5 5 5 4 4 3 3 3 3 2 2 2 2 2 2 2 3 5 5 5 5 5 5 5 4 4 2 3 2 3 3 3 3
1 2 2 2 2 3 4 4 5 5 5 5 5 4 4 3 3 3 3 2 2 1 2 1 1 2 2 3 5 5 5 5 5 5 5 5 4 3 3 2 4 4 3 2
2 3 3 1 2 3 3 3 4 5 5 4 4 3 3 3 2 2 2 2 1 1 1 1 1 2 2 2 4 5 5 5 4 4 5 5 5 5 4 2 3 3 3 4
3 2 2 1 2 2 3 4 5 5 4 4 3 2 2 2 2 2 2 2 2 2 2 1 1 1 1 2 2 3 4 4 3 3 3 4 4 4 5 5 4 3 2 4
2 1 1 1 2 2 2 3 4 3 3 3 2 2 2 2 2 2 1 1 1 1 1 1 1 1 1 1 2 2 2 2 2 2 2 2 2 3 3 3 3 4 4 3
2 2 1 1 1 2 2 3 3 3 2 2 2 2 2 3 2 2 2 2 1 1 1 0 0 1 1 1 1 2 2 2 2 2 2 2 2 2 2 2 2 2 3 3
1 2 1 1 0 1 1 2 2 2 2 2 2 2 2 2 2 2 2 2 2 2 2 1 1 1 1 0 1 1 2 2 3 2 2 2 2 2 2 2 2 1 1 2
1 1 2 1 0 0 1 1 2 1 1 2 2 2 2 2 2 2 2 2 2 2 2 2 2 1 1 1 0 1 1 1 2 2 1 1 1 1 1 2 2 2 2 3
2 2 1 1 1 1 1 1 1 1 1 1 1 2 2 2 1 1 1 1 1 1 1 1 1 1 1 1 1 1 1 1 1 2 2 2 2 2 2 2 2 3 2 3
3 4 3 2 2 2 2 2 1 1 1 1 1 1 1 2 2 2 1 1 1 2 1 1 0 0 0 1 0 1 2 2 1 1 2 2 2 2 3 3 3 3 3 3
3 3 3 2 2 2 2 2 2 1 1 1 1 1 1 2 2 2 1 1 1 1 1 2 1 0 1 1 2 2 2 2 2 2 2 2 2 2 2 3 3 3 3 3
1 1 2 2 2 2 2 2 1 1 1 1 1 1 1 1 1 1 1 1 2 2 1 0 0 1 2 2 2 2 2 2 2 2 2 2 2 2 2 3 3 2 2 1
2 2 2 2 2 2 1 2 2 1 2 2 2 2 2 2 2 2 1 1 1 2 2 2 2 2 2 2 2 2 2 2 2 1 1 2 3 2 2 2 2 2 2 2
1 1 2 2 2 1 1 2 2 1 1 1 2 2 1 1 1 1 1 1 1 0 1 0 0 1 2 2 2 2 2 2 2 1 1 2 2 2 2 2 2 2 2 2
1 1 1 1 1 1 1 1 1 1 1 0 1 2 2 2 2 2 2 2 1 1 2 1 2 3 3 3 2 2 2 2 2 2 2 2 2 2 2 2 2 2 2 2
1 0 0 1 1 2 2 1 1 2 2 2 2 2 2 2 2 1 1 1 1 1 2 2 1 2 3 3 3 3 2 1 2 3 3 2 2 2 2 2 3 2 2 1
1 0 0 0 0 1 1 1 1 2 2 2 2 2 2 3 3 2 2 2 1 1 2 2 2 2 2 3 2 2 2 2 2 2 2 2 2 2 2 2 2 1 1 1
Wind_Direction
261 264 252 239 237 236 239 245 248 229 209 195 184 153 150 148 150 147 148 151 143 141 145 151 155 156 159 160 156 157 157 156 155 152 150 149 148 140 137 142 139 126 126 124
259 259 262 249 238 239 241 247 239 236 236 185 167 136 139 143 147 149 150 151 147 145 145 154 158 161 158 156 154 153 157 157 157 156 153 149 145 143 141 133 125 129 128 103
257 253 257 249 239 238 236 241 250 239 208 188 157 124 156 143 144 145 149 146 146 150 153 158 162 159 159 156 151 152 153 154 155 156 154 154 156 147 146 136 131 133 117 109
257 255 247 252 250 245 247 246 240 230 196 192 151 154 105 105 105 121 135 136 136 148 164 171 168 160 158 155 154 157 160 161 158 157 156 155 150 147 148 145 147 141 133 124
248 247 243 248 258 260 258 255 254 229 181 155 129 114 104 98 97 97 100 114 131 151 154 147 153 151 150 156 158 164 167 162 159 158 156 159 159 162 164 161 159 165 164 159
248 248 244 246 275 283 253 231 216 157 136 142 165 212 126 88 91 94 94 96 105 118 125 127 131 138 150 160 163 170 166 161 158 160 160 166 168 170 170 170 176 178 173 181
246 247 243 302 299 284 243 225 47 148 148 172 73 59 71 66 73 86 90 88 89 104 125 139 140 142 152 159 166 165 158 157 161 162 164 168 164 162 166 179 189 194 189 185
238 243 236 347 308 321 4 14 45 65 72 74 77 82 77 75 74 81 89 97 102 111 122 136 146 153 160 168 162 157 159 162 163 165 177 174 165 174 187 192 198 199 196 192
250 228 70 38 44 49 34 33 33 61 89 92 86 75 75 75 73 72 77 95 115 123 119 122 139 156 167 167 157 158 160 162 162 165 173 177 178 184 196 195 204 203 199 199
122 105 86 59 56 48 28 8 68 70 77 87 87 77 69 66 67 62 63 81 96 112 114 124 134 150 168 162 157 159 164 163 165 171 175 173 182 190 196 194 203 206 204 202
97 101 86 66 45 65 72 58 56 66 74 77 81 80 78 72 65 55 50 63 73 86 105 120 131 151 168 169 167 171 171 169 179 184 175 175 178 188 206 182 202 200 207 199
54 52 27 51 36 46 62 59 61 66 64 66 74 75 71 69 70 53 49 53 75 103 117 124 148 173 175 173 174 176 179 179 188 192 179 179 174 160 67 100 114 114 107 123
360 14 32 73 58 62 73 68 71 69 71 69 65 72 67 71 80 72 52 40 49 110 121 130 156 173 166 177 181 184 187 185 196 197 184 186 187 183 171 133 100 107 124 131
12 17 48 68 71 62 71 72 76 74 69 63 59 53 58 60 67 65 54 31 19 35 64 90 126 124 154 160 168 188 197 198 209 201 190 198 201 199 188 184 176 179 168 164
24 19 344 25 76 77 77 89 92 88 83 81 69 46 32 39 50 44 42 53 47 28 42 59 61 44 41 152 159 184 209 207 209 219 212 212 206 200 192 190 189 182 157 163
4 357 14 39 75 81 79 87 92 88 71 69 63 41 24 22 29 31 27 21 20 3 16 29 55 70 58 47 196 206 211 214 213 222 219 212 202 203 206 196 202 190 184 170
359 346 345 328 0 86 92 81 76 65 44 34 37 32 26 25 20 35 32 35 41 29 26 44 50 49 45 310 255 242 226 203 209 238 240 220 215 216 211 214 224 219 197 161
305 301 282 271 287 70 84 95 86 59 40 36 31 13 15 20 10 26 28 33 43 45 30 40 55 37 33 19 310 246 231 212 204 229 242 227 225 228 230 220 213 209 191 170
351 344 346 22 32 53 41 34 36 29 27 18 5 20 30 16 11 17 16 8 356 343 6 40 98 100 75 57 13 269 267 230 198 200 211 200 218 242 247 240 234 231 212 189
10 5 14 38 41 37 8 334 334 17 28 3 9 6 352 348 346 338 341 350 347 341 7 64 112 243 213 116 57 278 280 281 271 240 235 237 234 239 245 249 243 236 222 201
20 9 0 13 25 16 349 330 340 5 6 342 342 317 325 347 344 343 325 307 14 24 1 139 162 309 305 300 249 260 260 262 264 263 249 246 251 249 244 247 251 245 231 217
25 15 354 3 6 352 344 344 355 2 359 354 343 339 333 326 327 351 355 326 354 41 350 342 340 353 342 307 257 265 270 272 269 267 263 249 245 247 250 252 256 260 248 233
353 337 333 339 331 319 326 345 354 353 348 351 351 343 340 340 325 318 329 10 13 13 324 338 359 4 318 276 277 273 271 268 265 270 279 281 270 259 252 253 252 253 252 244
359 345 338 343 348 355 0 352 356 356 342 334 341 328 306 309 335 333 349 90 80 24 307 14 67 272 252 262 275 281 281 277 270 275 270 271 273 269 261 257 259 253 242 244
54 30 34 24 13 13 8 340 331 337 314 0 17 0 353 358 347 352 355 26 71 264 296 236 196 218 249 276 273 269 274 281 277 275 265 256 257 258 255 262 265 259 245 240
66 13 57 16 11 357 337 335 350 11 347 346 360 360 349 337 325 313 303 334 18 333 310 309 270 235 265 280 280 283 282 254 241 242 254 257 263 266 264 258 262 264 261 257
207 294 284 267 327 310 319 336 347 345 340 358 355 344 339 338 336 333 329 319 314 296 288 286 289 288 285 287 282 284 292 288 266 255 258 259 254 249 254 260 271 282 283 286